TimeICT,TemperatureF,Dew PointF,Humidity,Sea Level PressureIn,VisibilityMPH,Wind Direction,Wind SpeedMPH,Gust SpeedMPH,PrecipitationIn,Events,Conditions,WindDirDegrees,DateUTC
12:00 AM,86.0,75.2,70,29.83,5.6,SW,6.9,-,N/A,,Mostly Cloudy,230,2013-05-16 17:00:00
12:30 AM,86.0,75.2,70,29.83,5.6,West,12.7,-,N/A,,Mostly Cloudy,260,2013-05-16 17:30:00
1:00 AM,87,79,70,29.78,6,WNW,4.6,,,,Mist,290,2013-05-16 18:00:00
1:00 AM,86.0,75.2,70,29.80,5.6,WSW,10.4,-,N/A,,Mostly Cloudy,240,2013-05-16 18:00:00
1:30 AM,84.2,75.2,74,29.80,5.6,Variable,3.5,-,N/A,,Mostly Cloudy,0,2013-05-16 18:30:00
2:00 AM,84.2,75.2,74,29.80,5.6,SW,2.3,-,N/A,,Mostly Cloudy,220,2013-05-16 19:00:00
3:00 AM,84.2,75.2,74,29.80,5.6,SSW,4.6,-,N/A,,Mostly Cloudy,200,2013-05-16 20:00:00
4:00 AM,84.2,77.0,79,29.77,5.6,Variable,2.3,-,N/A,,Mostly Cloudy,0,2013-05-16 21:00:00
5:00 AM,84.2,75.2,74,29.80,5.6,Variable,2.3,-,N/A,,Mostly Cloudy,0,2013-05-16 22:00:00
6:00 AM,82.4,75.2,79,29.77,5.6,WSW,5.8,-,N/A,,Mostly Cloudy,240,2013-05-16 23:00:00
6:30 AM,82.4,77.0,84,29.77,5.6,Variable,2.3,-,N/A,,Mostly Cloudy,0,2013-05-16 23:30:00
7:00 AM,87,78,67,29.77,6,West,3.5,,,,Mist,260,2013-05-17 00:00:00
7:00 AM,86.0,77.0,74,29.80,5.6,WSW,4.6,-,N/A,,Mostly Cloudy,250,2013-05-17 00:00:00
7:30 AM,86.0,77.0,74,29.80,5.6,WSW,8.1,-,N/A,,Mostly Cloudy,250,2013-05-17 00:30:00
8:00 AM,86.0,77.0,74,29.83,5.6,WSW,6.9,-,N/A,,Mostly Cloudy,250,2013-05-17 01:00:00
8:30 AM,87.8,78.8,75,29.83,5.6,West,12.7,-,N/A,,Mostly Cloudy,270,2013-05-17 01:30:00
9:00 AM,87.8,78.8,75,29.83,5.6,West,12.7,-,N/A,,Mostly Cloudy,260,2013-05-17 02:00:00
9:30 AM,87.8,77.0,70,29.86,5.6,West,15.0,-,N/A,,Mostly Cloudy,270,2013-05-17 02:30:00
10:00 AM,87.8,77.0,70,29.86,5.6,West,15.0,-,N/A,,Mostly Cloudy,270,2013-05-17 03:00:00
10:30 AM,87.8,77.0,70,29.86,5.6,West,13.8,-,N/A,,Mostly Cloudy,270,2013-05-17 03:30:00
11:00 AM,89.6,77.0,66,29.86,5.6,West,15.0,-,N/A,,Mostly Cloudy,270,2013-05-17 04:00:00
11:30 AM,89.6,77.0,66,29.86,5.6,West,16.1,-,N/A,,Mostly Cloudy,270,2013-05-17 04:30:00
12:00 PM,89.6,77.0,66,29.86,5.6,West,15.0,-,N/A,,Mostly Cloudy,270,2013-05-17 05:00:00
12:30 PM,91.4,77.0,63,29.83,5.6,West,13.8,-,N/A,,Mostly Cloudy,280,2013-05-17 05:30:00
1:00 PM,90,78,60,29.80,6,WNW,5.8,,,,Scattered Clouds,300,2013-05-17 06:00:00
1:00 PM,87.8,77.0,70,29.83,5.6,West,15.0,-,N/A,,Mostly Cloudy,280,2013-05-17 06:00:00
1:30 PM,86.0,75.2,70,29.83,4.3,West,13.8,-,N/A,Rain,Light Rain,280,2013-05-17 06:30:00
2:00 PM,84.2,77.0,79,29.83,4.3,WNW,11.5,-,N/A,Rain,Light Rain,290,2013-05-17 07:00:00
2:30 PM,84.2,78.8,84,29.80,4.3,WNW,8.1,-,N/A,Rain,Light Rain,290,2013-05-17 07:30:00
3:00 PM,82.4,77.0,84,29.80,3.1,NW,10.4,-,N/A,Rain,Rain,320,2013-05-17 08:00:00
3:30 PM,80.6,75.2,84,29.77,4.3,NW,10.4,21.9,N/A,Rain,Light Rain,320,2013-05-17 08:30:00
4:00 PM,80.6,75.2,84,29.77,4.3,NW,6.9,-,N/A,,Mostly Cloudy,310,2013-05-17 09:00:00
4:30 PM,80.6,75.2,84,29.74,5.0,NNW,4.6,-,N/A,,Mostly Cloudy,330,2013-05-17 09:30:00
5:00 PM,80.6,75.2,84,29.77,5.0,NNW,4.6,-,N/A,,Mostly Cloudy,340,2013-05-17 10:00:00
5:30 PM,80.6,75.2,84,29.80,5.0,Variable,1.2,-,N/A,,Mostly Cloudy,0,2013-05-17 10:30:00
6:00 PM,80.6,75.2,84,29.80,5.0,Calm,Calm,-,N/A,,Mostly Cloudy,0,2013-05-17 11:00:00
6:30 PM,80.6,77.0,89,29.80,5.0,Calm,Calm,-,N/A,,Mostly Cloudy,0,2013-05-17 11:30:00
7:00 PM,82,78,83,29.77,6,Calm,Calm,,,,Mist,,2013-05-17 12:00:00
7:00 PM,80.6,77.0,89,29.80,5.0,Calm,Calm,-,N/A,,Mostly Cloudy,0,2013-05-17 12:00:00
7:30 PM,80.6,77.0,89,29.83,5.0,East,3.5,-,N/A,,Mostly Cloudy,100,2013-05-17 12:30:00
8:00 PM,80.6,77.0,89,29.80,5.0,Variable,2.3,-,N/A,,Mostly Cloudy,0,2013-05-17 13:00:00
8:30 PM,80.6,75.2,84,29.80,5.0,East,4.6,-,N/A,,Mostly Cloudy,90,2013-05-17 13:30:00
9:00 PM,80.6,75.2,84,29.83,5.0,Calm,Calm,-,N/A,,Mostly Cloudy,0,2013-05-17 14:00:00
9:30 PM,80.6,75.2,84,29.83,5.0,Variable,2.3,-,N/A,,Mostly Cloudy,0,2013-05-17 14:30:00
10:00 PM,80.6,77.0,89,29.83,5.0,Variable,1.2,-,N/A,,Mostly Cloudy,0,2013-05-17 15:00:00
10:30 PM,80.6,77.0,89,29.83,5.0,Calm,Calm,-,N/A,,Mostly Cloudy,0,2013-05-17 15:30:00
11:00 PM,80.6,77.0,89,29.83,5.0,Calm,Calm,-,N/A,,Mostly Cloudy,0,2013-05-17 16:00:00
11:30 PM,78.8,77.0,94,29.86,5.0,Calm,Calm,-,N/A,,Mostly Cloudy,0,2013-05-17 16:30:00